Time,TemperatureF,DewpointF,PressureIn,WindDirection,WindDirectionDegrees,WindSpeedMPH,WindSpeedGustMPH,Humidity,HourlyPrecipIn,Conditions,Clouds,dailyrainin,SoftwareType,DateUTC
2013-04-13 00:00:00,57.9,42.8,29.87,NNW,337,0.0,0.0,57,0.00,,,0.00,WUHU21623XXSP,2013-04-13 04:00:00,
2013-04-13 00:05:00,57.6,42.4,29.87,NNW,337,0.0,0.0,57,0.00,,,0.00,WUHU21623XXSP,2013-04-13 04:05:00,
2013-04-13 00:10:00,57.4,42.7,29.87,North,0,0.0,0.0,58,0.00,,,0.00,WUHU21623XXSP,2013-04-13 04:10:00,
2013-04-13 00:15:00,57.0,42.4,29.87,North,0,0.0,0.0,58,0.00,,,0.00,WUHU21623XXSP,2013-04-13 04:15:00,
2013-04-13 00:20:00,56.8,43.2,29.88,North,0,0.0,0.0,60,0.00,,,0.00,WUHU21623XXSP,2013-04-13 04:20:00,
2013-04-13 00:25:00,56.5,43.2,29.87,ENE,67,0.0,0.0,61,0.00,,,0.00,WUHU21623XXSP,2013-04-13 04:25:00,
2013-04-13 00:30:00,56.3,43.0,29.88,ENE,67,0.0,0.0,61,0.00,,,0.00,WUHU21623XXSP,2013-04-13 04:30:00,
2013-04-13 00:35:00,55.9,43.3,29.87,ENE,67,0.0,0.0,62,0.00,,,0.00,WUHU21623XXSP,2013-04-13 04:35:00,
2013-04-13 00:40:00,55.9,43.5,29.88,ENE,67,0.0,0.0,63,0.00,,,0.00,WUHU21623XXSP,2013-04-13 04:40:00,
2013-04-13 00:45:00,55.8,43.7,29.88,ENE,67,0.0,0.0,64,0.00,,,0.00,WUHU21623XXSP,2013-04-13 04:45:00,
2013-04-13 00:50:00,55.6,44.0,29.89,ENE,67,0.0,0.0,65,0.00,,,0.00,WUHU21623XXSP,2013-04-13 04:50:00,
2013-04-13 00:55:00,55.2,43.6,29.89,ENE,67,0.0,0.0,65,0.00,,,0.00,WUHU21623XXSP,2013-04-13 04:55:00,
2013-04-13 01:00:00,55.2,43.6,29.89,ENE,67,0.0,0.0,65,0.00,,,0.00,WUHU21623XXSP,2013-04-13 05:00:00,
2013-04-13 01:05:00,55.0,43.8,29.90,ENE,67,0.0,0.0,66,0.00,,,0.00,WUHU21623XXSP,2013-04-13 05:05:00,
2013-04-13 01:10:00,54.9,43.7,29.90,ENE,67,0.0,0.0,66,0.00,,,0.00,WUHU21623XXSP,2013-04-13 05:10:00,
2013-04-13 01:15:00,54.7,43.9,29.90,ENE,67,0.0,0.0,67,0.00,,,0.00,WUHU21623XXSP,2013-04-13 05:15:00,
2013-04-13 01:20:00,54.5,43.7,29.90,ENE,67,0.0,0.0,67,0.00,,,0.00,WUHU21623XXSP,2013-04-13 05:20:00,
2013-04-13 01:25:00,54.3,44.0,29.90,ENE,67,0.0,0.0,68,0.00,,,0.00,WUHU21623XXSP,2013-04-13 05:25:00,
2013-04-13 01:30:00,54.3,44.0,29.90,ENE,67,0.0,0.0,68,0.00,,,0.00,WUHU21623XXSP,2013-04-13 05:30:00,
2013-04-13 01:35:00,54.1,43.8,29.90,ENE,67,0.0,0.0,68,0.00,,,0.00,WUHU21623XXSP,2013-04-13 05:35:00,
2013-04-13 01:40:00,54.0,44.0,29.90,ENE,67,0.0,0.0,69,0.00,,,0.00,WUHU21623XXSP,2013-04-13 05:40:00,
2013-04-13 01:45:00,53.8,43.8,29.90,ENE,67,0.0,0.0,69,0.00,,,0.00,WUHU21623XXSP,2013-04-13 05:45:00,
2013-04-13 01:50:00,53.4,43.9,29.90,ENE,67,0.0,0.0,70,0.00,,,0.00,WUHU21623XXSP,2013-04-13 05:50:00,
2013-04-13 01:55:00,53.4,43.9,29.90,ENE,67,0.0,0.0,70,0.00,,,0.00,WUHU21623XXSP,2013-04-13 05:55:00,
2013-04-13 02:00:00,53.2,44.2,29.90,ENE,67,0.0,0.0,71,0.00,,,0.00,WUHU21623XXSP,2013-04-13 06:00:00,
2013-04-13 02:05:00,53.2,44.1,29.90,ENE,67,0.0,0.0,71,0.00,,,0.00,WUHU21623XXSP,2013-04-13 06:05:00,
2013-04-13 02:10:00,52.9,43.8,29.90,ENE,67,0.0,0.0,71,0.00,,,0.00,WUHU21623XXSP,2013-04-13 06:10:00,
2013-04-13 02:15:00,52.9,43.8,29.90,ENE,67,0.0,0.0,71,0.00,,,0.00,WUHU21623XXSP,2013-04-13 06:15:00,
2013-04-13 02:20:00,52.5,43.8,29.90,ENE,67,0.0,0.0,72,0.00,,,0.00,WUHU21623XXSP,2013-04-13 06:20:00,
2013-04-13 02:25:00,52.3,43.8,29.91,ENE,67,0.0,0.0,72,0.00,,,0.00,WUHU21623XXSP,2013-04-13 06:25:00,
2013-04-13 02:30:00,52.3,44.0,29.91,ENE,67,0.0,0.0,73,0.00,,,0.00,WUHU21623XXSP,2013-04-13 06:30:00,
2013-04-13 02:35:00,52.0,43.6,29.90,ENE,67,0.0,0.0,73,0.00,,,0.00,WUHU21623XXSP,2013-04-13 06:35:00,
2013-04-13 02:40:00,52.0,43.6,29.91,ENE,67,0.0,0.0,73,0.00,,,0.00,WUHU21623XXSP,2013-04-13 06:40:00,
2013-04-13 02:45:00,51.6,43.6,29.91,ENE,67,0.0,0.0,74,0.00,,,0.00,WUHU21623XXSP,2013-04-13 06:45:00,
2013-04-13 02:51:00,51.6,43.6,29.91,ENE,67,0.0,0.0,74,0.00,,,0.00,WUHU21623XXSP,2013-04-13 06:51:00,
2013-04-13 02:56:00,51.4,43.8,29.90,ENE,67,0.0,0.0,75,0.00,,,0.00,WUHU21623XXSP,2013-04-13 06:56:00,
2013-04-13 03:02:00,51.4,43.8,29.91,ENE,67,0.0,0.0,75,0.00,,,0.00,WUHU21623XXSP,2013-04-13 07:02:00,
2013-04-13 03:07:00,51.3,43.6,29.91,ENE,67,0.0,0.0,75,0.00,,,0.00,WUHU21623XXSP,2013-04-13 07:07:00,
2013-04-13 03:12:00,51.1,43.4,29.91,ENE,67,0.0,0.0,76,0.00,,,0.00,WUHU21623XXSP,2013-04-13 07:12:00,
2013-04-13 03:17:00,50.9,43.6,29.91,ENE,67,0.0,0.0,76,0.00,,,0.00,WUHU21623XXSP,2013-04-13 07:17:00,
2013-04-13 03:22:00,50.7,43.4,29.91,ENE,67,0.0,0.0,76,0.00,,,0.00,WUHU21623XXSP,2013-04-13 07:22:00,
2013-04-13 03:27:00,50.7,43.8,29.91,ENE,67,0.0,0.0,77,0.00,,,0.00,WUHU21623XXSP,2013-04-13 07:27:00,
2013-04-13 03:32:00,50.5,43.6,29.90,ENE,67,0.0,0.0,77,0.00,,,0.00,WUHU21623XXSP,2013-04-13 07:32:00,
2013-04-13 03:37:00,50.5,43.6,29.90,ENE,67,0.0,0.0,77,0.00,,,0.00,WUHU21623XXSP,2013-04-13 07:37:00,
2013-04-13 03:43:00,50.4,43.4,29.90,ENE,67,0.0,0.0,77,0.00,,,0.00,WUHU21623XXSP,2013-04-13 07:43:00,
2013-04-13 03:48:00,50.4,43.7,29.90,ENE,67,0.0,0.0,78,0.00,,,0.00,WUHU21623XXSP,2013-04-13 07:48:00,
2013-04-13 03:53:00,50.4,43.7,29.90,ESE,112,0.0,0.0,78,0.00,,,0.00,WUHU21623XXSP,2013-04-13 07:53:00,
2013-04-13 03:58:00,50.4,43.7,29.90,ESE,112,0.0,0.0,78,0.00,,,0.00,WUHU21623XXSP,2013-04-13 07:58:00,
2013-04-13 04:03:00,50.4,43.7,29.91,ESE,112,0.0,0.0,78,0.00,,,0.00,WUHU21623XXSP,2013-04-13 08:03:00,
2013-04-13 04:08:00,50.2,43.6,29.91,ESE,112,0.0,0.0,78,0.00,,,0.00,WUHU21623XXSP,2013-04-13 08:08:00,
2013-04-13 04:13:00,50.2,43.6,29.91,ESE,112,0.0,0.0,78,0.00,,,0.00,WUHU21623XXSP,2013-04-13 08:13:00,
2013-04-13 04:18:00,50.2,43.6,29.91,ESE,112,0.0,0.0,78,0.00,,,0.00,WUHU21623XXSP,2013-04-13 08:18:00,
2013-04-13 04:23:00,50.0,43.4,29.91,ESE,112,0.0,0.0,78,0.00,,,0.00,WUHU21623XXSP,2013-04-13 08:23:00,
2013-04-13 04:28:00,49.8,43.2,29.91,ESE,112,0.0,0.0,78,0.00,,,0.00,WUHU21623XXSP,2013-04-13 08:28:00,
2013-04-13 04:33:00,49.8,43.2,29.90,ESE,112,0.0,0.0,78,0.00,,,0.00,WUHU21623XXSP,2013-04-13 08:33:00,
2013-04-13 04:38:00,49.8,43.2,29.90,ESE,112,0.0,0.0,78,0.00,,,0.00,WUHU21623XXSP,2013-04-13 08:38:00,
2013-04-13 04:43:00,49.6,43.2,29.91,ESE,112,0.0,0.0,78,0.00,,,0.00,WUHU21623XXSP,2013-04-13 08:43:00,
2013-04-13 04:48:00,49.6,43.4,29.90,ESE,112,0.0,0.0,79,0.00,,,0.00,WUHU21623XXSP,2013-04-13 08:48:00,
2013-04-13 04:53:00,49.6,43.4,29.90,ESE,112,0.0,0.0,79,0.00,,,0.00,WUHU21623XXSP,2013-04-13 08:53:00,
2013-04-13 04:59:00,49.6,43.4,29.90,ESE,112,0.0,0.0,79,0.00,,,0.00,WUHU21623XXSP,2013-04-13 08:59:00,
2013-04-13 05:04:00,49.3,43.0,29.90,ESE,112,0.0,0.0,79,0.00,,,0.00,WUHU21623XXSP,2013-04-13 09:04:00,
2013-04-13 05:09:00,49.3,43.0,29.90,ESE,112,0.0,0.0,79,0.00,,,0.00,WUHU21623XXSP,2013-04-13 09:09:00,
2013-04-13 05:14:00,49.3,43.0,29.90,ESE,112,0.0,0.0,79,0.00,,,0.00,WUHU21623XXSP,2013-04-13 09:14:00,
2013-04-13 05:19:00,49.1,42.8,29.90,ESE,112,0.0,0.0,79,0.00,,,0.00,WUHU21623XXSP,2013-04-13 09:19:00,
2013-04-13 05:24:00,48.9,42.6,29.90,ESE,112,0.0,0.0,79,0.00,,,0.00,WUHU21623XXSP,2013-04-13 09:24:00,
2013-04-13 05:29:00,48.9,42.6,29.90,ESE,112,0.0,0.0,79,0.00,,,0.00,WUHU21623XXSP,2013-04-13 09:29:00,
2013-04-13 05:34:00,48.9,43.0,29.89,ESE,112,0.0,0.0,80,0.00,,,0.00,WUHU21623XXSP,2013-04-13 09:34:00,
2013-04-13 05:39:00,48.7,42.8,29.89,ESE,112,0.0,0.0,80,0.00,,,0.00,WUHU21623XXSP,2013-04-13 09:39:00,
2013-04-13 05:44:00,48.7,42.8,29.89,ESE,112,0.0,0.0,80,0.00,,,0.00,WUHU21623XXSP,2013-04-13 09:44:00,
2013-04-13 05:50:00,48.6,42.6,29.88,ESE,112,0.0,0.0,80,0.00,,,0.00,WUHU21623XXSP,2013-04-13 09:50:00,
2013-04-13 05:55:00,48.6,42.6,29.88,ESE,112,0.0,0.0,80,0.00,,,0.00,WUHU21623XXSP,2013-04-13 09:55:00,
2013-04-13 06:00:00,48.4,42.7,29.89,ESE,112,0.0,0.0,81,0.00,,,0.00,WUHU21623XXSP,2013-04-13 10:00:00,
2013-04-13 06:05:00,48.4,42.7,29.88,ESE,112,0.0,0.0,81,0.00,,,0.00,WUHU21623XXSP,2013-04-13 10:05:00,
2013-04-13 06:10:00,48.2,42.6,29.88,ESE,112,0.0,0.0,81,0.00,,,0.00,WUHU21623XXSP,2013-04-13 10:10:00,
2013-04-13 06:15:00,48.0,42.4,29.88,ESE,112,0.0,0.0,81,0.00,,,0.00,WUHU21623XXSP,2013-04-13 10:15:00,
2013-04-13 06:21:00,48.0,42.4,29.87,ESE,112,0.0,0.0,81,0.00,,,0.00,WUHU21623XXSP,2013-04-13 10:21:00,
2013-04-13 06:26:00,48.0,42.4,29.88,ESE,112,0.0,0.0,81,0.00,,,0.00,WUHU21623XXSP,2013-04-13 10:26:00,
2013-04-13 06:31:00,47.8,42.2,29.89,ESE,112,0.0,0.0,81,0.00,,,0.00,WUHU21623XXSP,2013-04-13 10:31:00,
2013-04-13 06:36:00,47.8,42.2,29.88,ESE,112,0.0,0.0,81,0.00,,,0.00,WUHU21623XXSP,2013-04-13 10:36:00,
2013-04-13 06:41:00,47.7,42.4,29.89,ESE,112,0.0,0.0,82,0.00,,,0.00,WUHU21623XXSP,2013-04-13 10:41:00,
2013-04-13 06:46:00,47.5,42.2,29.89,ESE,112,0.0,0.0,82,0.00,,,0.00,WUHU21623XXSP,2013-04-13 10:46:00,
2013-04-13 06:51:00,47.3,42.1,29.88,ESE,112,0.0,0.0,82,0.00,,,0.00,WUHU21623XXSP,2013-04-13 10:51:00,
2013-04-13 06:57:00,47.3,42.1,29.87,ESE,112,0.0,0.0,82,0.00,,,0.00,WUHU21623XXSP,2013-04-13 10:57:00,
2013-04-13 07:02:00,47.1,41.9,29.87,ESE,112,0.0,0.0,82,0.00,,,0.00,WUHU21623XXSP,2013-04-13 11:02:00,
2013-04-13 07:07:00,47.1,41.9,29.88,ESE,112,0.0,0.0,82,0.00,,,0.00,WUHU21623XXSP,2013-04-13 11:07:00,
2013-04-13 07:12:00,47.1,41.9,29.88,ESE,112,0.0,0.0,82,0.00,,,0.00,WUHU21623XXSP,2013-04-13 11:12:00,
2013-04-13 07:17:00,47.1,42.2,29.89,ESE,112,0.0,0.0,83,0.00,,,0.00,WUHU21623XXSP,2013-04-13 11:17:00,
2013-04-13 07:22:00,47.1,42.2,29.88,ESE,112,0.0,0.0,83,0.00,,,0.00,WUHU21623XXSP,2013-04-13 11:22:00,
2013-04-13 07:28:00,46.9,42.0,29.89,ESE,112,0.0,0.0,83,0.00,,,0.00,WUHU21623XXSP,2013-04-13 11:28:00,
2013-04-13 07:33:00,46.8,41.9,29.88,ESE,112,0.0,0.0,83,0.00,,,0.00,WUHU21623XXSP,2013-04-13 11:33:00,
2013-04-13 07:38:00,46.8,41.9,29.88,ESE,112,0.0,0.0,83,0.00,,,0.00,WUHU21623XXSP,2013-04-13 11:38:00,
2013-04-13 07:43:00,46.6,41.7,29.88,ESE,112,0.0,0.0,83,0.00,,,0.00,WUHU21623XXSP,2013-04-13 11:43:00,
2013-04-13 07:48:00,46.6,41.7,29.88,ESE,112,0.0,0.0,83,0.00,,,0.00,WUHU21623XXSP,2013-04-13 11:48:00,
2013-04-13 07:53:00,46.6,41.7,29.88,ESE,112,0.0,0.0,83,0.00,,,0.00,WUHU21623XXSP,2013-04-13 11:53:00,
2013-04-13 07:59:00,46.2,41.4,29.88,ESE,112,0.0,0.0,83,0.00,,,0.00,WUHU21623XXSP,2013-04-13 11:59:00,
2013-04-13 08:04:00,46.2,41.4,29.89,ESE,112,0.0,0.0,83,0.00,,,0.00,WUHU21623XXSP,2013-04-13 12:04:00,
2013-04-13 08:09:00,46.2,41.4,29.89,ESE,112,0.0,0.0,83,0.00,,,0.00,WUHU21623XXSP,2013-04-13 12:09:00,
2013-04-13 08:14:00,46.2,41.7,29.88,ESE,112,0.0,0.0,84,0.00,,,0.00,WUHU21623XXSP,2013-04-13 12:14:00,
2013-04-13 08:19:00,46.0,41.7,29.88,ESE,112,0.0,0.0,84,0.00,,,0.00,WUHU21623XXSP,2013-04-13 12:19:00,
2013-04-13 08:24:00,46.0,41.5,29.89,ESE,112,0.0,0.0,84,0.00,,,0.00,WUHU21623XXSP,2013-04-13 12:24:00,
2013-04-13 08:29:00,46.0,41.5,29.89,ESE,112,0.0,0.0,84,0.00,,,0.00,WUHU21623XXSP,2013-04-13 12:29:00,
2013-04-13 08:34:00,46.0,41.5,29.89,ESE,112,0.0,0.0,84,0.00,,,0.00,WUHU21623XXSP,2013-04-13 12:34:00,
2013-04-13 08:39:00,45.7,41.1,29.89,ESE,112,0.0,0.0,84,0.00,,,0.00,WUHU21623XXSP,2013-04-13 12:39:00,
2013-04-13 08:44:00,45.7,41.1,29.89,ESE,112,0.0,0.0,84,0.00,,,0.00,WUHU21623XXSP,2013-04-13 12:44:00,
2013-04-13 08:49:00,45.7,41.1,29.88,ESE,112,0.0,0.0,84,0.00,,,0.00,WUHU21623XXSP,2013-04-13 12:49:00,
2013-04-13 08:54:00,45.5,41.0,29.88,ESE,112,0.0,0.0,84,0.00,,,0.00,WUHU21623XXSP,2013-04-13 12:54:00,
2013-04-13 08:59:00,45.5,41.0,29.88,ESE,112,0.0,0.0,84,0.00,,,0.00,WUHU21623XXSP,2013-04-13 12:59:00,
2013-04-13 09:04:00,45.5,41.0,29.88,ESE,112,0.0,0.0,84,0.00,,,0.00,WUHU21623XXSP,2013-04-13 13:04:00,
2013-04-13 09:10:00,45.3,40.8,29.88,ESE,112,0.0,0.0,84,0.00,,,0.00,WUHU21623XXSP,2013-04-13 13:10:00,
2013-04-13 09:15:00,45.3,40.8,29.88,ESE,112,0.0,0.0,84,0.00,,,0.00,WUHU21623XXSP,2013-04-13 13:15:00,
2013-04-13 09:20:00,45.1,40.9,29.89,ESE,112,0.0,0.0,85,0.00,,,0.00,WUHU21623XXSP,2013-04-13 13:20:00,
2013-04-13 09:25:00,45.1,40.9,29.89,ESE,112,0.0,0.0,85,0.00,,,0.00,WUHU21623XXSP,2013-04-13 13:25:00,
2013-04-13 09:31:00,45.1,40.9,29.89,ESE,112,0.0,0.0,85,0.00,,,0.00,WUHU21623XXSP,2013-04-13 13:31:00,
2013-04-13 09:36:00,45.1,40.9,29.89,ESE,112,0.0,0.0,85,0.00,,,0.00,WUHU21623XXSP,2013-04-13 13:36:00,
2013-04-13 09:41:00,45.1,40.9,29.89,ESE,112,0.0,0.0,85,0.00,,,0.00,WUHU21623XXSP,2013-04-13 13:41:00,
2013-04-13 09:46:00,45.0,40.7,29.89,ESE,112,0.0,0.0,85,0.00,,,0.00,WUHU21623XXSP,2013-04-13 13:46:00,
2013-04-13 09:51:00,45.0,40.7,29.90,ESE,112,0.0,0.0,85,0.00,,,0.00,WUHU21623XXSP,2013-04-13 13:51:00,
2013-04-13 09:56:00,45.0,40.7,29.90,ESE,112,0.0,0.0,85,0.00,,,0.00,WUHU21623XXSP,2013-04-13 13:56:00,
2013-04-13 10:01:00,45.0,40.7,29.90,ESE,112,0.0,0.0,85,0.00,,,0.00,WUHU21623XXSP,2013-04-13 14:01:00,
2013-04-13 10:07:00,45.1,40.9,29.89,ESE,112,0.0,0.0,85,0.00,,,0.00,WUHU21623XXSP,2013-04-13 14:07:00,
2013-04-13 10:12:00,45.3,41.1,29.90,ESE,112,0.0,0.0,85,0.00,,,0.00,WUHU21623XXSP,2013-04-13 14:12:00,
2013-04-13 10:17:00,45.7,41.8,29.89,ESE,112,0.0,0.0,86,0.00,,,0.00,WUHU21623XXSP,2013-04-13 14:17:00,
2013-04-13 10:23:00,45.9,41.9,29.90,ESE,112,0.0,0.0,86,0.00,,,0.00,WUHU21623XXSP,2013-04-13 14:23:00,
2013-04-13 10:28:00,46.2,42.3,29.90,ESE,112,0.0,0.0,86,0.00,,,0.00,WUHU21623XXSP,2013-04-13 14:28:00,
2013-04-13 10:33:00,46.6,42.6,29.90,ESE,112,0.0,0.0,86,0.00,,,0.00,WUHU21623XXSP,2013-04-13 14:33:00,
2013-04-13 10:39:00,46.9,43.0,29.90,ESE,112,0.0,0.0,86,0.00,,,0.00,WUHU21623XXSP,2013-04-13 14:39:00,
2013-04-13 10:44:00,47.3,43.3,29.91,ESE,112,0.0,0.0,86,0.00,,,0.00,WUHU21623XXSP,2013-04-13 14:44:00,
2013-04-13 10:49:00,47.8,43.7,29.91,ESE,112,0.0,0.0,86,0.00,,,0.00,WUHU21623XXSP,2013-04-13 14:49:00,
2013-04-13 10:54:00,48.7,44.7,29.92,ESE,112,0.0,0.0,86,0.00,,,0.00,WUHU21623XXSP,2013-04-13 14:54:00,
2013-04-13 10:59:00,49.1,45.0,29.92,ESE,112,0.0,0.0,86,0.00,,,0.00,WUHU21623XXSP,2013-04-13 14:59:00,
2013-04-13 11:04:00,49.8,45.4,29.91,ESE,112,0.0,0.0,85,0.00,,,0.00,WUHU21623XXSP,2013-04-13 15:04:00,
2013-04-13 11:10:00,50.4,46.0,29.91,ESE,112,0.0,0.0,85,0.00,,,0.00,WUHU21623XXSP,2013-04-13 15:10:00,
2013-04-13 11:15:00,50.9,46.2,29.91,SE,135,0.4,0.4,84,0.00,,,0.00,WUHU21623XXSP,2013-04-13 15:15:00,
2013-04-13 11:20:00,51.6,46.6,29.91,SE,135,0.0,3.1,83,0.00,,,0.00,WUHU21623XXSP,2013-04-13 15:20:00,
2013-04-13 11:25:00,51.8,46.8,29.92,SE,135,0.9,3.1,83,0.00,,,0.00,WUHU21623XXSP,2013-04-13 15:25:00,
2013-04-13 11:30:00,52.9,47.6,29.92,SE,135,1.1,1.1,82,0.00,,,0.00,WUHU21623XXSP,2013-04-13 15:30:00,
2013-04-13 11:35:00,53.4,47.8,29.91,SE,135,0.0,1.1,81,0.00,,,0.00,WUHU21623XXSP,2013-04-13 15:35:00,
2013-04-13 11:41:00,53.8,47.8,29.91,ENE,67,0.7,0.7,80,0.00,,,0.00,WUHU21623XXSP,2013-04-13 15:41:00,
2013-04-13 11:47:00,54.5,48.1,29.91,NE,45,0.0,0.7,79,0.00,,,0.00,WUHU21623XXSP,2013-04-13 15:47:00,
2013-04-13 11:52:00,55.0,47.9,29.92,NNE,22,3.6,3.6,77,0.00,,,0.00,WUHU21623XXSP,2013-04-13 15:52:00,
2013-04-13 11:57:00,55.6,48.1,29.92,NNE,22,2.2,3.6,76,0.00,,,0.00,WUHU21623XXSP,2013-04-13 15:57:00,
2013-04-13 12:02:00,55.9,48.1,29.92,NNE,22,0.0,2.2,75,0.00,,,0.00,WUHU21623XXSP,2013-04-13 16:02:00,
2013-04-13 12:07:00,56.1,48.3,29.92,NNE,22,0.0,0.0,75,0.00,,,0.00,WUHU21623XXSP,2013-04-13 16:07:00,
2013-04-13 12:12:00,56.8,48.2,29.91,NNE,22,0.0,0.0,73,0.00,,,0.00,WUHU21623XXSP,2013-04-13 16:12:00,
2013-04-13 12:17:00,57.0,48.0,29.91,NNE,22,0.0,0.0,72,0.00,,,0.00,WUHU21623XXSP,2013-04-13 16:17:00,
2013-04-13 12:22:00,57.7,48.4,29.91,SE,135,0.2,1.3,71,0.00,,,0.00,WUHU21623XXSP,2013-04-13 16:22:00,
2013-04-13 12:28:00,58.1,48.2,29.91,SE,135,0.7,1.3,70,0.00,,,0.00,WUHU21623XXSP,2013-04-13 16:28:00,
2013-04-13 12:33:00,58.8,48.7,29.91,SSE,157,0.0,0.7,69,0.00,,,0.00,WUHU21623XXSP,2013-04-13 16:33:00,
2013-04-13 12:38:00,58.8,48.3,29.92,SSW,202,2.0,2.0,68,0.00,,,0.00,WUHU21623XXSP,2013-04-13 16:38:00,
2013-04-13 12:43:00,59.7,48.8,29.92,SSW,202,0.0,2.0,67,0.00,,,0.00,WUHU21623XXSP,2013-04-13 16:43:00,
2013-04-13 12:48:00,60.4,49.1,29.91,NNW,337,1.6,2.0,66,0.00,,,0.00,WUHU21623XXSP,2013-04-13 16:48:00,
2013-04-13 12:53:00,60.4,48.7,29.92,North,0,0.0,2.2,65,0.00,,,0.00,WUHU21623XXSP,2013-04-13 16:53:00,
2013-04-13 12:58:00,60.6,48.4,29.92,North,0,2.2,2.2,64,0.00,,,0.00,WUHU21623XXSP,2013-04-13 16:58:00,
2013-04-13 13:03:00,61.2,48.9,29.92,WSW,247,1.1,2.2,64,0.00,,,0.00,WUHU21623XXSP,2013-04-13 17:03:00,
2013-04-13 13:08:00,61.9,48.7,29.91,WSW,247,0.0,1.1,62,0.00,,,0.00,WUHU21623XXSP,2013-04-13 17:08:00,
2013-04-13 13:14:00,62.4,49.2,29.91,SW,225,5.4,5.4,62,0.00,,,0.00,WUHU21623XXSP,2013-04-13 17:14:00,
2013-04-13 13:19:00,63.0,48.9,29.91,SW,225,0.0,5.4,60,0.00,,,0.00,WUHU21623XXSP,2013-04-13 17:19:00,
2013-04-13 13:24:00,63.7,49.0,29.91,West,270,0.0,0.0,59,0.00,,,0.00,WUHU21623XXSP,2013-04-13 17:24:00,
2013-04-13 13:29:00,64.0,48.9,29.90,SSW,202,1.6,2.9,58,0.00,,,0.00,WUHU21623XXSP,2013-04-13 17:29:00,
2013-04-13 13:34:00,64.8,49.6,29.91,SSW,202,0.0,2.9,58,0.00,,,0.00,WUHU21623XXSP,2013-04-13 17:34:00,
2013-04-13 13:40:00,65.1,49.0,29.91,West,270,0.0,1.1,56,0.00,,,0.00,WUHU21623XXSP,2013-04-13 17:40:00,
2013-04-13 13:45:00,65.3,49.1,29.91,North,0,0.0,7.2,56,0.00,,,0.00,WUHU21623XXSP,2013-04-13 17:45:00,
2013-04-13 13:50:00,65.7,49.0,29.91,NNE,22,0.2,7.2,55,0.00,,,0.00,WUHU21623XXSP,2013-04-13 17:50:00,
2013-04-13 13:55:00,65.7,49.0,29.91,WNW,292,0.0,4.7,55,0.00,,,0.00,WUHU21623XXSP,2013-04-13 17:55:00,
2013-04-13 14:00:00,66.0,49.4,29.91,ESE,112,0.0,6.3,55,0.00,,,0.00,WUHU21623XXSP,2013-04-13 18:00:00,
2013-04-13 14:05:00,66.9,49.7,29.90,WSW,247,0.0,6.3,54,0.00,,,0.00,WUHU21623XXSP,2013-04-13 18:05:00,
2013-04-13 14:10:00,67.6,49.4,29.91,WNW,292,0.0,2.2,52,0.00,,,0.00,WUHU21623XXSP,2013-04-13 18:10:00,
2013-04-13 14:15:00,68.7,50.4,29.91,East,90,0.0,2.5,52,0.00,,,0.00,WUHU21623XXSP,2013-04-13 18:15:00,
2013-04-13 14:20:00,69.1,50.2,29.90,NNE,22,6.0,6.0,51,0.00,,,0.00,WUHU21623XXSP,2013-04-13 18:20:00,
2013-04-13 14:25:00,68.7,49.4,29.90,NNE,22,4.5,6.0,50,0.00,,,0.00,WUHU21623XXSP,2013-04-13 18:25:00,
2013-04-13 14:27:00,68.7,49.4,29.90,North,0,3.4,6.0,50,0.00,,,0.00,WUHU21623XXSP,2013-04-13 18:27:00,
2013-04-13 14:32:00,68.7,49.9,29.90,NNW,337,0.9,4.5,51,0.00,,,0.00,WUHU21623XXSP,2013-04-13 18:32:00,
2013-04-13 14:37:00,69.1,50.2,29.90,North,0,8.3,8.3,51,0.00,,,0.00,WUHU21623XXSP,2013-04-13 18:37:00,
2013-04-13 14:42:00,69.1,50.2,29.90,North,0,0.0,8.3,51,0.00,,,0.00,WUHU21623XXSP,2013-04-13 18:42:00,
2013-04-13 14:47:00,69.4,50.5,29.90,NW,315,0.0,4.7,51,0.00,,,0.00,WUHU21623XXSP,2013-04-13 18:47:00,
2013-04-13 14:52:00,69.6,50.7,29.90,NNE,22,2.5,7.2,51,0.00,,,0.00,WUHU21623XXSP,2013-04-13 18:52:00,
2013-04-13 14:57:00,69.6,50.7,29.89,NNE,22,2.2,7.2,51,0.00,,,0.00,WUHU21623XXSP,2013-04-13 18:57:00,
2013-04-13 15:02:00,69.3,50.9,29.89,NNE,22,8.9,8.9,52,0.00,,,0.00,WUHU21623XXSP,2013-04-13 19:02:00,
2013-04-13 15:07:00,69.6,51.2,29.89,East,90,0.0,8.9,52,0.00,,,0.00,WUHU21623XXSP,2013-04-13 19:07:00,
2013-04-13 15:12:00,69.8,51.4,29.89,North,0,4.7,4.7,52,0.00,,,0.00,WUHU21623XXSP,2013-04-13 19:12:00,
2013-04-13 15:17:00,69.6,50.7,29.89,NNE,22,4.9,8.1,51,0.00,,,0.00,WUHU21623XXSP,2013-04-13 19:17:00,
2013-04-13 15:22:00,69.4,51.2,29.88,NNE,22,6.3,8.1,52,0.00,,,0.00,WUHU21623XXSP,2013-04-13 19:22:00,
2013-04-13 15:27:00,69.4,51.0,29.89,North,0,1.3,6.3,52,0.00,,,0.00,WUHU21623XXSP,2013-04-13 19:27:00,
2013-04-13 15:32:00,69.1,50.7,29.89,NNE,22,4.7,9.8,52,0.00,,,0.00,WUHU21623XXSP,2013-04-13 19:32:00,
2013-04-13 15:37:00,69.4,51.0,29.89,NNE,22,6.0,9.8,52,0.00,,,0.00,WUHU21623XXSP,2013-04-13 19:37:00,
2013-04-13 15:42:00,69.4,51.5,29.88,NNE,22,2.5,6.0,53,0.00,,,0.00,WUHU21623XXSP,2013-04-13 19:42:00,
2013-04-13 15:47:00,69.8,51.7,29.88,North,0,7.2,7.2,52,0.00,,,0.00,WUHU21623XXSP,2013-04-13 19:47:00,
2013-04-13 15:52:00,70.2,51.2,29.87,WNW,292,0.0,7.2,51,0.00,,,0.00,WUHU21623XXSP,2013-04-13 19:52:00,
2013-04-13 15:57:00,71.2,51.7,29.87,North,0,2.5,2.5,50,0.00,,,0.00,WUHU21623XXSP,2013-04-13 19:57:00,
2013-04-13 16:02:00,71.4,51.2,29.87,North,0,0.0,8.1,49,0.00,,,0.00,WUHU21623XXSP,2013-04-13 20:02:00,
2013-04-13 16:07:00,72.1,51.9,29.87,South,180,3.8,8.1,49,0.00,,,0.00,WUHU21623XXSP,2013-04-13 20:07:00,
2013-04-13 16:12:00,73.6,52.7,29.87,SE,135,0.0,3.8,48,0.00,,,0.00,WUHU21623XXSP,2013-04-13 20:12:00,
2013-04-13 16:17:00,74.3,52.7,29.87,SW,225,0.0,0.0,47,0.00,,,0.00,WUHU21623XXSP,2013-04-13 20:17:00,
2013-04-13 16:22:00,75.0,53.4,29.87,South,180,0.0,0.0,47,0.00,,,0.00,WUHU21623XXSP,2013-04-13 20:22:00,
2013-04-13 16:28:00,75.9,53.6,29.86,SSW,202,0.0,3.4,46,0.00,,,0.00,WUHU21623XXSP,2013-04-13 20:28:00,
2013-04-13 16:33:00,76.5,52.3,29.86,NE,45,0.0,3.4,43,0.00,,,0.00,WUHU21623XXSP,2013-04-13 20:33:00,
2013-04-13 16:37:00,76.3,50.9,29.86,NNE,22,0.0,2.0,41,0.00,,,0.00,WUHU21623XXSP,2013-04-13 20:37:00,
2013-04-13 16:42:00,75.6,49.6,29.85,NE,45,0.0,3.6,40,0.00,,,0.00,WUHU21623XXSP,2013-04-13 20:42:00,
2013-04-13 16:47:00,75.0,49.1,29.85,North,0,2.5,3.6,40,0.00,,,0.00,WUHU21623XXSP,2013-04-13 20:47:00,
2013-04-13 16:52:00,74.7,49.0,29.86,WSW,247,2.2,2.5,40,0.00,,,0.00,WUHU21623XXSP,2013-04-13 20:52:00,
2013-04-13 16:57:00,73.9,47.6,29.86,WSW,247,1.3,2.2,39,0.00,,,0.00,WUHU21623XXSP,2013-04-13 20:57:00,
2013-04-13 17:02:00,73.2,46.7,29.86,South,180,8.7,8.7,39,0.00,,,0.00,WUHU21623XXSP,2013-04-13 21:02:00,
2013-04-13 17:07:00,73.0,46.6,29.86,NNE,22,8.3,8.7,39,0.00,,,0.00,WUHU21623XXSP,2013-04-13 21:07:00,
2013-04-13 17:12:00,72.7,46.3,29.85,NNW,337,4.7,8.3,39,0.00,,,0.00,WUHU21623XXSP,2013-04-13 21:12:00,
2013-04-13 17:17:00,72.5,46.1,29.85,WNW,292,2.5,8.3,39,0.00,,,0.00,WUHU21623XXSP,2013-04-13 21:17:00,
2013-04-13 17:22:00,72.5,46.9,29.85,NW,315,7.4,7.4,40,0.00,,,0.00,WUHU21623XXSP,2013-04-13 21:22:00,
2013-04-13 17:27:00,72.5,46.9,29.85,NE,45,0.0,7.4,40,0.00,,,0.00,WUHU21623XXSP,2013-04-13 21:27:00,
2013-04-13 17:32:00,72.9,47.2,29.85,SSW,202,0.0,2.0,40,0.00,,,0.00,WUHU21623XXSP,2013-04-13 21:32:00,
2013-04-13 17:37:00,73.2,46.7,29.85,SSW,202,7.6,7.6,39,0.00,,,0.00,WUHU21623XXSP,2013-04-13 21:37:00,
2013-04-13 17:42:00,73.6,47.7,29.85,SSW,202,3.6,7.6,39,0.00,,,0.00,WUHU21623XXSP,2013-04-13 21:42:00,
2013-04-13 17:47:00,74.1,48.3,29.86,WNW,292,0.0,7.6,40,0.00,,,0.00,WUHU21623XXSP,2013-04-13 21:47:00,
2013-04-13 17:52:00,74.8,49.0,29.85,WSW,247,5.4,5.4,40,0.00,,,0.00,WUHU21623XXSP,2013-04-13 21:52:00,
2013-04-13 17:57:00,75.4,48.7,29.85,SSW,202,7.2,7.2,39,0.00,,,0.00,WUHU21623XXSP,2013-04-13 21:57:00,
2013-04-13 18:02:00,75.7,48.3,29.85,SW,225,0.0,7.2,38,0.00,,,0.00,WUHU21623XXSP,2013-04-13 22:02:00,
2013-04-13 18:07:00,76.1,48.6,29.85,SW,225,2.2,4.3,38,0.00,,,0.00,WUHU21623XXSP,2013-04-13 22:07:00,
2013-04-13 18:12:00,75.9,46.1,29.86,NNW,337,4.7,6.9,35,0.00,,,0.00,WUHU21623XXSP,2013-04-13 22:12:00,
2013-04-13 18:17:00,75.0,45.3,29.86,WSW,247,4.3,6.9,35,0.00,,,0.00,WUHU21623XXSP,2013-04-13 22:17:00,
2013-04-13 18:22:00,74.3,44.7,29.86,SW,225,0.0,8.3,35,0.00,,,0.00,WUHU21623XXSP,2013-04-13 22:22:00,
2013-04-13 18:27:00,73.9,44.4,29.85,SSW,202,8.7,8.7,35,0.00,,,0.00,WUHU21623XXSP,2013-04-13 22:27:00,
2013-04-13 18:32:00,73.9,45.1,29.86,NW,315,0.0,8.7,36,0.00,,,0.00,WUHU21623XXSP,2013-04-13 22:32:00,
2013-04-13 18:37:00,73.8,44.2,29.85,NNE,22,0.0,6.9,35,0.00,,,0.00,WUHU21623XXSP,2013-04-13 22:37:00,
2013-04-13 18:42:00,73.2,43.7,29.85,North,0,4.9,4.9,35,0.00,,,0.00,WUHU21623XXSP,2013-04-13 22:42:00,
2013-04-13 18:47:00,73.0,43.6,29.85,SW,225,0.0,4.9,35,0.00,,,0.00,WUHU21623XXSP,2013-04-13 22:47:00,
2013-04-13 18:52:00,72.5,43.1,29.85,WNW,292,0.0,0.0,35,0.00,,,0.00,WUHU21623XXSP,2013-04-13 22:52:00,
2013-04-13 18:57:00,72.1,42.8,29.85,SW,225,2.9,6.9,35,0.00,,,0.00,WUHU21623XXSP,2013-04-13 22:57:00,
2013-04-13 19:02:00,72.1,43.5,29.85,SE,135,6.3,9.4,36,0.00,,,0.00,WUHU21623XXSP,2013-04-13 23:02:00,
2013-04-13 19:07:00,72.3,43.7,29.85,SSW,202,8.1,9.4,36,0.00,,,0.00,WUHU21623XXSP,2013-04-13 23:07:00,
2013-04-13 19:12:00,72.7,43.3,29.85,WSW,247,3.6,8.1,35,0.00,,,0.00,WUHU21623XXSP,2013-04-13 23:12:00,
2013-04-13 19:17:00,72.9,43.4,29.85,SE,135,0.0,4.7,35,0.00,,,0.00,WUHU21623XXSP,2013-04-13 23:17:00,
2013-04-13 19:22:00,72.7,43.3,29.85,East,90,0.0,7.8,35,0.00,,,0.00,WUHU21623XXSP,2013-04-13 23:22:00,
2013-04-13 19:27:00,72.9,43.4,29.85,SSW,202,0.2,7.8,35,0.00,,,0.00,WUHU21623XXSP,2013-04-13 23:27:00,
2013-04-13 19:32:00,72.7,43.3,29.85,SW,225,8.7,8.7,35,0.00,,,0.00,WUHU21623XXSP,2013-04-13 23:32:00,
2013-04-13 19:37:00,72.5,43.9,29.85,SW,225,7.8,8.7,36,0.00,,,0.00,WUHU21623XXSP,2013-04-13 23:37:00,
2013-04-13 19:42:00,72.3,43.7,29.84,SW,225,0.0,9.4,36,0.00,,,0.00,WUHU21623XXSP,2013-04-13 23:42:00,
2013-04-13 19:47:00,72.1,43.5,29.85,SSW,202,6.9,9.4,36,0.00,,,0.00,WUHU21623XXSP,2013-04-13 23:47:00,
2013-04-13 19:52:00,72.0,43.4,29.85,SW,225,0.0,6.9,36,0.00,,,0.00,WUHU21623XXSP,2013-04-13 23:52:00,
2013-04-13 19:57:00,71.4,41.5,29.85,SSW,202,5.4,6.7,34,0.00,,,0.00,WUHU21623XXSP,2013-04-13 23:57:00,
2013-04-13 20:02:00,71.2,42.0,29.85,SSW,202,8.1,8.1,35,0.00,,,0.00,WUHU21623XXSP,2013-04-14 00:02:00,
2013-04-13 20:07:00,70.9,41.0,29.85,SSW,202,2.7,8.1,34,0.00,,,0.00,WUHU21623XXSP,2013-04-14 00:07:00,
2013-04-13 20:12:00,70.7,41.5,29.85,North,0,7.4,7.4,35,0.00,,,0.00,WUHU21623XXSP,2013-04-14 00:12:00,
2013-04-13 20:17:00,70.5,41.4,29.85,South,180,8.1,8.1,35,0.00,,,0.00,WUHU21623XXSP,2013-04-14 00:17:00,
2013-04-13 20:23:00,70.3,42.0,29.85,SW,225,0.0,8.1,36,0.00,,,0.00,WUHU21623XXSP,2013-04-14 00:23:00,
2013-04-13 20:28:00,70.2,41.8,29.85,SW,225,0.0,0.0,36,0.00,,,0.00,WUHU21623XXSP,2013-04-14 00:28:00,
2013-04-13 20:33:00,69.8,41.6,29.85,SSW,202,6.5,6.5,37,0.00,,,0.00,WUHU21623XXSP,2013-04-14 00:33:00,
2013-04-13 20:38:00,69.6,42.0,29.85,NE,45,0.0,6.5,37,0.00,,,0.00,WUHU21623XXSP,2013-04-14 00:38:00,
2013-04-13 20:43:00,69.4,41.9,29.85,SSE,157,0.0,6.5,37,0.00,,,0.00,WUHU21623XXSP,2013-04-14 00:43:00,
2013-04-13 20:48:00,69.1,41.7,29.85,SSE,157,0.0,0.0,37,0.00,,,0.00,WUHU21623XXSP,2013-04-14 00:48:00,
2013-04-13 20:53:00,68.7,41.2,29.84,SSW,202,4.7,4.7,37,0.00,,,0.00,WUHU21623XXSP,2013-04-14 00:53:00,
2013-04-13 20:58:00,68.5,41.8,29.84,SE,135,0.0,4.7,38,0.00,,,0.00,WUHU21623XXSP,2013-04-14 00:58:00,
2013-04-13 21:03:00,68.2,41.5,29.85,SSE,157,2.9,2.9,38,0.00,,,0.00,WUHU21623XXSP,2013-04-14 01:03:00,
2013-04-13 21:08:00,67.8,41.2,29.85,South,180,0.0,2.9,38,0.00,,,0.00,WUHU21623XXSP,2013-04-14 01:08:00,
2013-04-13 21:13:00,67.6,41.0,29.85,South,180,0.0,0.0,38,0.00,,,0.00,WUHU21623XXSP,2013-04-14 01:13:00,
2013-04-13 21:18:00,67.3,40.7,29.85,South,180,2.5,2.5,38,0.00,,,0.00,WUHU21623XXSP,2013-04-14 01:18:00,
2013-04-13 21:23:00,66.6,40.8,29.85,South,180,3.4,3.4,39,0.00,,,0.00,WUHU21623XXSP,2013-04-14 01:23:00,
2013-04-13 21:28:00,66.0,40.3,29.85,South,180,0.0,3.4,39,0.00,,,0.00,WUHU21623XXSP,2013-04-14 01:28:00,
2013-04-13 21:33:00,66.0,40.3,29.85,SSW,202,0.0,0.0,39,0.00,,,0.00,WUHU21623XXSP,2013-04-14 01:33:00,
2013-04-13 21:38:00,65.3,40.4,29.85,SSW,202,4.7,4.7,40,0.00,,,0.00,WUHU21623XXSP,2013-04-14 01:38:00,
2013-04-13 21:43:00,64.9,40.0,29.85,SW,225,3.1,4.7,40,0.00,,,0.00,WUHU21623XXSP,2013-04-14 01:43:00,
2013-04-13 21:48:00,64.6,40.3,29.85,SSE,157,0.0,4.7,41,0.00,,,0.00,WUHU21623XXSP,2013-04-14 01:48:00,
2013-04-13 21:53:00,63.9,39.6,29.86,SSW,202,0.0,0.0,41,0.00,,,0.00,WUHU21623XXSP,2013-04-14 01:53:00,
2013-04-13 21:58:00,63.3,39.7,29.87,SW,225,0.0,0.0,42,0.00,,,0.00,WUHU21623XXSP,2013-04-14 01:58:00,
2013-04-13 22:03:00,63.0,39.4,29.87,ESE,112,0.0,0.0,42,0.00,,,0.00,WUHU21623XXSP,2013-04-14 02:03:00,
2013-04-13 22:08:00,62.4,39.5,29.87,SSW,202,0.0,0.0,43,0.00,,,0.00,WUHU21623XXSP,2013-04-14 02:08:00,
2013-04-13 22:13:00,61.9,39.6,29.87,SSW,202,2.5,2.5,44,0.00,,,0.00,WUHU21623XXSP,2013-04-14 02:13:00,
2013-04-13 22:18:00,61.5,39.8,29.87,West,270,0.0,2.5,45,0.00,,,0.00,WUHU21623XXSP,2013-04-14 02:18:00,
2013-04-13 22:23:00,60.6,39.0,29.87,SW,225,0.0,0.0,45,0.00,,,0.00,WUHU21623XXSP,2013-04-14 02:23:00,
2013-04-13 22:28:00,60.4,39.5,29.87,South,180,0.0,0.0,46,0.00,,,0.00,WUHU21623XXSP,2013-04-14 02:28:00,
2013-04-13 22:33:00,59.9,39.0,29.87,ESE,112,0.0,0.0,46,0.00,,,0.00,WUHU21623XXSP,2013-04-14 02:33:00,
2013-04-13 22:38:00,58.8,38.6,29.87,SE,135,0.0,6.9,47,0.00,,,0.00,WUHU21623XXSP,2013-04-14 02:38:00,
2013-04-13 22:43:00,58.6,39.1,29.87,SW,225,0.0,6.9,48,0.00,,,0.00,WUHU21623XXSP,2013-04-14 02:43:00,
2013-04-13 22:48:00,58.1,38.5,29.87,East,90,0.0,0.0,48,0.00,,,0.00,WUHU21623XXSP,2013-04-14 02:48:00,
2013-04-13 22:53:00,57.4,38.6,29.87,SE,135,0.0,0.0,49,0.00,,,0.00,WUHU21623XXSP,2013-04-14 02:53:00,
2013-04-13 22:58:00,57.0,38.7,29.87,SSW,202,0.0,0.0,50,0.00,,,0.00,WUHU21623XXSP,2013-04-14 02:58:00,
2013-04-13 23:03:00,56.8,38.5,29.87,SSW,202,0.0,0.0,50,0.00,,,0.00,WUHU21623XXSP,2013-04-14 03:03:00,
2013-04-13 23:08:00,56.1,38.2,29.87,SW,225,0.0,5.1,51,0.00,,,0.00,WUHU21623XXSP,2013-04-14 03:08:00,
2013-04-13 23:13:00,55.9,38.5,29.88,SSW,202,0.0,5.1,52,0.00,,,0.00,WUHU21623XXSP,2013-04-14 03:13:00,
2013-04-13 23:18:00,55.4,38.2,29.88,SSW,202,0.0,4.7,52,0.00,,,0.00,WUHU21623XXSP,2013-04-14 03:18:00,
2013-04-13 23:23:00,55.0,38.3,29.87,SSW,202,0.0,0.0,53,0.00,,,0.00,WUHU21623XXSP,2013-04-14 03:23:00,
2013-04-13 23:28:00,54.7,38.3,29.87,SSW,202,0.0,0.0,54,0.00,,,0.00,WUHU21623XXSP,2013-04-14 03:28:00,
2013-04-13 23:33:00,54.3,38.4,29.88,SSW,202,0.0,0.7,55,0.00,,,0.00,WUHU21623XXSP,2013-04-14 03:33:00,
2013-04-13 23:38:00,54.1,38.2,29.88,SSW,202,0.0,0.7,55,0.00,,,0.00,WUHU21623XXSP,2013-04-14 03:38:00,
2013-04-13 23:43:00,53.8,38.1,29.88,SSW,202,0.0,0.0,56,0.00,,,0.00,WUHU21623XXSP,2013-04-14 03:43:00,
2013-04-13 23:48:00,53.4,38.0,29.88,WSW,247,0.0,0.0,56,0.00,,,0.00,WUHU21623XXSP,2013-04-14 03:48:00,
2013-04-13 23:53:00,53.4,38.5,29.89,SSW,202,0.0,2.2,57,0.00,,,0.00,WUHU21623XXSP,2013-04-14 03:53:00,
2013-04-13 23:58:00,53.2,38.3,29.89,SW,225,0.0,2.2,57,0.00,,,0.00,WUHU21623XXSP,2013-04-14 03:58:00,